weather.gov     
National Weather Service

Regional Weather Roundup
NWS Homepage
This page is being discontinued on March 12, 2014.
The same data is available at this site. Please update your bookmarks.
Thank you, and we apologize for the inconvenience.
Please send an email to SR-SRH.Webmaster@noaa.gov with any concerns.


Current Version
Previous Version:    01  02  03  04  05  06  07  08  09  10  11  12  13  14  15  16  17  18  19  20  21  22  23  24  25  26  27  
[Printable]
437
ASUS42 KILM 252010
RWRILM
RWRILM
REGIONAL HOURLY WEATHER ROUNDUP
NATIONAL WEATHER SERVICE WILMINGTON NC
300 PM EST SUN JAN 25 2015

NOTE: "FAIR" INDICATES FEW OR NO CLOUDS BELOW 12,000 FEET WITH NO
SIGNIFICANT WEATHER AND/OR OBSTRUCTIONS TO VISIBILITY.

...............WFO WILMINGTON COUNTY WARNING AREA...............

......COASTAL NC AND SC COUNTIES......

CITY           SKY/WX    TMP DP  RH WIND       PRES   REMARKS
WILMINGTON     SUNNY     53  35  50 SE9       29.90F
SOUTHPORT      SUNNY     51  32  48 S7        29.92F
N MYRTLE BEACH SUNNY     51  34  52 SE7       29.91F
MYRTLE BEACH   SUNNY     52  36  54 S13       29.93F

......INLAND NC AND SC COUNTIES.......

CITY           SKY/WX    TMP DP  RH WIND       PRES   REMARKS
LUMBERTON      SUNNY     55  35  47 S8        29.87F
ELIZABETHTOWN  SUNNY     56  35  45 S6        29.88F
WHITEVILLE     SUNNY     55  33  43 S6        29.88F
FLORENCE       SUNNY     59  33  37 S13       29.86F
DARLINGTON     SUNNY     57  36  44 S13       29.86F

....................REST OF NORTH CAROLINA......................

.........EASTERN NC.........

CITY           SKY/WX    TMP DP  RH WIND       PRES   REMARKS
CAPE HATTERAS  SUNNY     49  31  49 VRB5      29.93S
JACKSONVILLE   SUNNY     54  30  40 N5        29.90F
MOREHEAD CITY  SUNNY     49  35  58 S7        29.91F
KENANSVILLE    SUNNY     54  30  40 CALM      29.89F
NEW BERN       SUNNY     56  32  40 CALM      29.90F
ELIZABETH CITY SUNNY     50  31  48 S12       29.89F

.........CENTRAL NC.........

CITY           SKY/WX    TMP DP  RH WIND       PRES   REMARKS
RALEIGH DURHAM MOSUNNY   54  32  43 S8        29.86F
ROCKY MOUNT    SUNNY     54  33  45 S3        29.88F
ROANOKE RAPIDS NOT AVBL
FAYETTEVILLE   SUNNY     57  34  41 SW8       29.87F
HOFFMAN        SUNNY     56  33  41 S9        29.86F

.........WESTERN NC.........

CITY           SKY/WX    TMP DP  RH WIND       PRES   REMARKS
CHARLOTTE      MOSUNNY   57  28  33 S15       29.80F
GREENSBORO     PTSUNNY   54  31  41 S9        29.79F
HICKORY        NOT AVBL
BOONE          NOT AVBL
ASHEVILLE      NOT AVBL

.....................REST OF SOUTH CAROLINA.....................

.........EASTERN SC.........

CITY           SKY/WX    TMP DP  RH WIND       PRES   REMARKS
CHARLESTON     MOSUNNY   57  35  43 S12       29.90F
BEAUFORT MCAS  MOSUNNY   56  39  53 SE8       29.90F
HILTON HEAD    SUNNY     54  39  58 S8        29.92F

.........CENTRAL SC.........

CITY           SKY/WX    TMP DP  RH WIND       PRES   REMARKS
COLUMBIA       SUNNY     61  30  31 S12       29.82F
ORANGEBURG     SUNNY     60  31  33 SW10G17   29.85F
SUMTER SHAW    SUNNY     59  33  37 S10       29.83F

.........WESTERN SC.........

CITY           SKY/WX    TMP DP  RH WIND       PRES   REMARKS
GREENVILLE     NOT AVBL
ROCK HILL      SUNNY     57  31  37 SW13      29.80F
ANDERSON       SUNNY     57  29  34 SW12      29.79F
CLEMSON        NOT AVBL
GREENWOOD      SUNNY     57  28  33 S9G18     29.81F


...................COASTAL AND OFFSHORE REPORTS..................

................LOCAL PIERS AND NC RESERVE................


STATION/POSITION TIME  SKY/WX   TEMP    WIND        PRES    VSBY
                                AIR SEA DIR/SP/G
                 (UTC)          (F)     (DEG/KT/KT) (MB)    (MI)
JOHNY MRCER PIER 2000            48 54  150/ 11/ 12 1012.2F
NC RESRV MASNBRO 1900            52     150/  4     1014.0F
OCEAN CREST PIER 2000            51 54  150/  4/  5 1012.4F
SPRINGMAID  PIER 2000            49 50  150/  7/  9 1012.8F


................COASTAL AND OFFSHORE BUOYS................


STATION/POSITION TIME  SKY/WX   TEMP    WIND        PRES    VSBY
                                AIR SEA DIR/SP/G
                 (UTC)          (F)     (DEG/KT/KT) (MB)    (MI)
DIMNDSHOAL 41025 2000            49 69  230/  2/  4 1013.6S
WVE H/P(F/S)=  4/10 WND WVE H/P(F/S)=  2/ 4 SWL H/P/D(F/S/D)=  3/140/10

CAPE LOOKOUT     1900            48     210/  5/  8 1013.6F
ONSLOW BAY 41036 NOT AVBL
5 WRITEBCH 41038 1900            49 52  170/  8/  8 1013.6F
MASONBORO  41110 2000               52                N/A
WVE H/P(F/S)=  2/ 8 WND WVE H/P(F/S)=  2/ 8

WILM HARBR 41108 2000               55                N/A
WVE H/P(F/S)=  3/ 7 WND WVE H/P(F/S)=  3/ 7

27WRITEBCH 41037 NOT AVBL
FRYING PAN 41013 2000            53 67  120/  2/  6 1014.0F
WVE H/P(F/S)=  4/ 7 WND WVE H/P(F/S)=  2/ 4 SWL H/P/D(F/S/D)=  3/190/ 7

SUNST NRSH 41024 1900            52     160/  2/  4   N/A
CAPRS NRSH 41029 1900            50     180/  8/  8   N/A
EDISTO     41004 2000            55 70  200/  8/ 10 1013.1F
WVE H/P(F/S)=  3/ 6 WND WVE H/P(F/S)=  2/ 4 SWL H/P/D(F/S/D)=  2/ 6



..........OFFSHORE BUOYS BEYOND 100 NM OFFSHORE...........
.....IN A TRIANGLE---HAT TO BERMUDA TO BAHAMAS TO HAT.....


STATION/POSITION TIME  SKY/WX   TEMP    WIND        PRES    VSBY
                                AIR SEA DIR/SP/G
                 (UTC)          (F)     (DEG/KT/KT) (MB)    (MI)
150E HAT   41001 NOT AVBL
W BERMUDA  41048 1855            66 71  280/ 14/ 17 1013.1R
WVE H/P(F/S)= 11/11 WND WVE H/P(F/S)=  5/ 6 SWL H/P/D(F/S/D)= 10/270/11

ATLANTIC S 41049 1854            76 75  240/ 14/ 16 1014.3R
WVE H/P(F/S)=  6/ 6 WND WVE H/P(F/S)=  5/ 6 SWL H/P/D(F/S/D)=  3/100/ 9

E BAHAMAS  41046 1923            79 79  200/ 10/ 12 1014.5F
WVE H/P(F/S)=  3/10 WND WVE H/P(F/S)=  2/ 5 SWL H/P/D(F/S/D)=  3/ 40/10

NE BAHAMAS 41047 1944            72 76  300/  8/ 12 1014.7R
WVE H/P(F/S)=  8/10 WND WVE H/P(F/S)=  2/ 3 SWL H/P/D(F/S/D)=  8/310/10

120E CANVRL41010 2000            65 76  240/  6/  8 1015.1S
WVE H/P(F/S)=  5/ 7 WND WVE H/P(F/S)=  2/ 4 SWL H/P/D(F/S/D)=  5/340/ 7


END




U.S. Dept. of Commerce
NOAA National Weather Service
1325 East West Highway
Silver Spring, MD 20910
E-mail: w-nws.webmaster@noaa.gov
Page last modified: May 16, 2007
NATIONAL WEATHER SERVICE: for Safety, for Work, for Fun - FOR LIFE